Station Historical Data
Daily Summary for May 2, 2017 Units:  English    Metric   Both
« Previous Day
Next Day »
Daily Weekly Monthly Yearly Custom
  High: Low: Average:
Temperature: 53.3 °F 45.8 °F 48.3 °F
Dew Point: 46.5 °F 39.8 °F 42.4 °F
Humidity: 87% 72% 80%
Wind Speed: 24.0mph 0.0mph 8.5mph
Wind Gust: 30.0mph - -
Wind- - SW
Pressure: 29.77 in 29.53 in -
Precipitation: 0.05 in    
Historical Graphs
 
 
Tabular Data for May 2, 2017
Time Temperature Dew Point Pressure Wind Wind Speed Wind Gust Humidity Rainfall Rate (Hourly)
00:00 51.2 °F 46.2 °F 29.57 in SSW 4.0 mph 18.0 mph 83% 0.00 in
00:05 51.2 °F 46.2 °F 29.56 in SW 9.0 mph 18.0 mph 83% 0.00 in
00:10 51.1 °F 46.1 °F 29.57 in SW 9.0 mph 18.0 mph 83% 0.00 in
00:15 51.3 °F 46.0 °F 29.57 in WSW 9.0 mph 20.0 mph 82% 0.00 in
00:20 51.5 °F 46.2 °F 29.57 in WSW 10.0 mph 20.0 mph 82% 0.00 in
00:25 51.5 °F 46.2 °F 29.57 in SW 10.0 mph 20.0 mph 82% 0.00 in
00:30 51.4 °F 46.1 °F 29.58 in SW 16.0 mph 21.0 mph 82% 0.00 in
00:35 51.1 °F 46.1 °F 29.58 in WSW 10.0 mph 17.0 mph 83% 0.00 in
00:40 50.8 °F 45.8 °F 29.58 in SW 8.0 mph 19.0 mph 83% 0.00 in
00:45 50.7 °F 45.7 °F 29.57 in WSW 6.0 mph 15.0 mph 83% 0.00 in
00:50 50.5 °F 45.5 °F 29.57 in West 7.0 mph 11.0 mph 83% 0.00 in
00:55 50.5 °F 45.5 °F 29.57 in WSW 7.0 mph 12.0 mph 83% 0.00 in
01:00 50.3 °F 45.3 °F 29.58 in SSW 9.0 mph 13.0 mph 83% 0.00 in
01:05 50.0 °F 45.0 °F 29.58 in SW 6.0 mph 16.0 mph 83% 0.00 in
01:10 49.6 °F 44.6 °F 29.58 in SW 6.0 mph 16.0 mph 83% 0.00 in
01:15 49.3 °F 44.4 °F 29.59 in SW 6.0 mph 15.0 mph 83% 0.00 in
01:20 49.1 °F 44.5 °F 29.58 in SW 6.0 mph 15.0 mph 84% 0.00 in
01:25 49.1 °F 44.5 °F 29.59 in WSW 8.0 mph 15.0 mph 84% 0.00 in
01:30 49.1 °F 44.5 °F 29.59 in SW 7.0 mph 13.0 mph 84% 0.00 in
01:35 49.2 °F 44.6 °F 29.59 in SW 7.0 mph 15.0 mph 84% 0.00 in
01:40 49.2 °F 44.6 °F 29.59 in WSW 5.0 mph 13.0 mph 84% 0.00 in
01:45 49.2 °F 44.3 °F 29.59 in SSW 7.0 mph 13.0 mph 83% 0.00 in
01:50 49.1 °F 44.2 °F 29.59 in SW 4.0 mph 16.0 mph 83% 0.00 in
01:55 48.9 °F 44.0 °F 29.59 in ENE 2.0 mph 10.0 mph 83% 0.00 in
02:00 48.9 °F 44.0 °F 29.58 in SW 7.0 mph 14.0 mph 83% 0.00 in
02:05 49.0 °F 43.7 °F 29.59 in SW 7.0 mph 14.0 mph 82% 0.00 in
02:10 49.0 °F 43.7 °F 29.58 in SW 6.0 mph 13.0 mph 82% 0.00 in
02:15 49.0 °F 43.7 °F 29.58 in SW 6.0 mph 13.0 mph 82% 0.00 in
02:20 48.9 °F 43.6 °F 29.58 in SW 4.0 mph 13.0 mph 82% 0.00 in
02:25 48.8 °F 43.5 °F 29.58 in WSW 5.0 mph 11.0 mph 82% 0.00 in
02:30 48.7 °F 43.5 °F 29.58 in West 4.0 mph 11.0 mph 82% 0.00 in
02:35 48.4 °F 43.2 °F 29.58 in WSW 5.0 mph 11.0 mph 82% 0.00 in
02:40 48.3 °F 43.4 °F 29.58 in SW 6.0 mph 12.0 mph 83% 0.00 in
02:45 48.2 °F 43.3 °F 29.58 in SW 6.0 mph 12.0 mph 83% 0.00 in
02:50 48.1 °F 43.5 °F 29.58 in West 2.0 mph 8.0 mph 84% 0.00 in
02:55 48.0 °F 43.4 °F 29.58 in SW 6.0 mph 10.0 mph 84% 0.00 in
03:00 48.1 °F 43.5 °F 29.58 in SSW 4.0 mph 8.0 mph 84% 0.00 in
03:05 48.1 °F 43.5 °F 29.58 in SW 4.0 mph 9.0 mph 84% 0.00 in
03:10 48.0 °F 43.4 °F 29.58 in SW 4.0 mph 9.0 mph 84% 0.00 in
03:15 48.1 °F 43.5 °F 29.58 in WSW 4.0 mph 11.0 mph 84% 0.00 in
03:20 48.2 °F 43.6 °F 29.58 in SW 7.0 mph 11.0 mph 84% 0.00 in
03:25 48.2 °F 43.3 °F 29.58 in SW 7.0 mph 11.0 mph 83% 0.00 in
03:30 48.2 °F 43.6 °F 29.58 in WSW 5.0 mph 8.0 mph 84% 0.00 in
03:35 48.1 °F 43.5 °F 29.58 in SW 3.0 mph 9.0 mph 84% 0.00 in
03:40 48.1 °F 43.5 °F 29.58 in SW 5.0 mph 10.0 mph 84% 0.00 in
03:45 48.1 °F 43.5 °F 29.58 in SW 5.0 mph 10.0 mph 84% 0.00 in
03:50 48.2 °F 43.6 °F 29.58 in SW 3.0 mph 9.0 mph 84% 0.00 in
03:55 48.2 °F 43.3 °F 29.58 in SSW 2.0 mph 14.0 mph 83% 0.00 in
04:00 48.3 °F 43.4 °F 29.58 in WSW 3.0 mph 7.0 mph 83% 0.00 in
04:05 48.3 °F 43.4 °F 29.58 in SW 4.0 mph 13.0 mph 83% 0.00 in
04:10 48.3 °F 43.4 °F 29.58 in SW 5.0 mph 13.0 mph 83% 0.00 in
04:15 48.3 °F 43.4 °F 29.58 in SW 5.0 mph 11.0 mph 83% 0.00 in
04:20 48.2 °F 43.3 °F 29.58 in SW 5.0 mph 11.0 mph 83% 0.00 in
04:25 48.2 °F 43.3 °F 29.58 in SW 5.0 mph 11.0 mph 83% 0.00 in
04:30 48.3 °F 43.4 °F 29.58 in SW 5.0 mph 10.0 mph 83% 0.00 in
04:35 48.4 °F 43.5 °F 29.58 in SW 5.0 mph 11.0 mph 83% 0.00 in
04:40 48.3 °F 43.1 °F 29.58 in SSW 6.0 mph 14.0 mph 82% 0.00 in
04:45 48.3 °F 43.1 °F 29.58 in SW 7.0 mph 12.0 mph 82% 0.00 in
04:50 48.3 °F 43.4 °F 29.58 in SW 5.0 mph 12.0 mph 83% 0.00 in
04:55 48.3 °F 43.1 °F 29.58 in SW 4.0 mph 12.0 mph 82% 0.00 in
05:00 48.4 °F 43.2 °F 29.58 in SW 6.0 mph 9.0 mph 82% 0.00 in
05:05 48.5 °F 43.3 °F 29.58 in SW 5.0 mph 10.0 mph 82% 0.00 in
05:10 48.5 °F 43.3 °F 29.58 in SW 5.0 mph 10.0 mph 82% 0.00 in
05:15 48.6 °F 43.4 °F 29.58 in SW 5.0 mph 10.0 mph 82% 0.00 in
05:20 48.8 °F 43.5 °F 29.58 in SW 5.0 mph 11.0 mph 82% 0.00 in
05:25 49.0 °F 43.4 °F 29.58 in SW 5.0 mph 14.0 mph 81% 0.00 in
05:30 49.2 °F 43.3 °F 29.58 in SW 5.0 mph 14.0 mph 80% 0.00 in
05:35 49.3 °F 43.4 °F 29.58 in SW 5.0 mph 15.0 mph 80% 0.00 in
05:40 49.4 °F 43.2 °F 29.58 in WSW 6.0 mph 11.0 mph 79% 0.00 in
05:45 49.5 °F 43.3 °F 29.58 in SW 8.0 mph 12.0 mph 79% 0.00 in
05:50 49.5 °F 43.3 °F 29.58 in WSW 6.0 mph 12.0 mph 79% 0.00 in
05:55 49.4 °F 43.2 °F 29.58 in SSW 3.0 mph 10.0 mph 79% 0.00 in
06:00 49.3 °F 43.1 °F 29.58 in West 7.0 mph 8.0 mph 79% 0.00 in
06:05 49.2 °F 43.0 °F 29.57 in WSW 4.0 mph 10.0 mph 79% 0.00 in
06:10 49.1 °F 43.2 °F 29.57 in WSW 4.0 mph 10.0 mph 80% 0.00 in
06:15 49.0 °F 43.1 °F 29.57 in WSW 4.0 mph 9.0 mph 80% 0.00 in
06:20 48.9 °F 43.3 °F 29.57 in WSW 4.0 mph 7.0 mph 81% 0.00 in
06:25 48.9 °F 43.3 °F 29.58 in WSW 3.0 mph 7.0 mph 81% 0.00 in
06:30 48.9 °F 43.3 °F 29.58 in WSW 3.0 mph 5.0 mph 81% 0.00 in
06:35 48.9 °F 43.6 °F 29.58 in Calm   5.0 mph 82% 0.00 in
06:40 49.1 °F 43.8 °F 29.57 in WSW 2.0 mph 11.0 mph 82% 0.00 in
06:45 49.4 °F 44.1 °F 29.57 in SW 4.0 mph 11.0 mph 82% 0.00 in
06:50 49.9 °F 43.3 °F 29.57 in SW 5.0 mph 18.0 mph 78% 0.00 in
06:55 50.6 °F 43.0 °F 29.56 in SW 6.0 mph 18.0 mph 75% 0.00 in
07:00 51.0 °F 42.6 °F 29.56 in SW 5.0 mph 10.0 mph 73% 0.00 in
07:05 51.2 °F 42.5 °F 29.56 in WSW 3.0 mph 11.0 mph 72% 0.00 in
07:10 51.2 °F 42.8 °F 29.56 in SW 4.0 mph 11.0 mph 73% 0.00 in
07:15 51.3 °F 42.9 °F 29.56 in SW 4.0 mph 9.0 mph 73% 0.00 in
07:20 51.4 °F 43.0 °F 29.56 in SW 6.0 mph 9.0 mph 73% 0.00 in
07:25 51.5 °F 43.1 °F 29.56 in SSW 2.0 mph 8.0 mph 73% 0.00 in
07:30 51.7 °F 43.3 °F 29.56 in West 8.0 mph 10.0 mph 73% 0.00 in
07:35 51.8 °F 43.4 °F 29.56 in SSW 3.0 mph 8.0 mph 73% 0.00 in
07:40 51.7 °F 43.7 °F 29.56 in West 5.0 mph 8.0 mph 74% 0.00 in
07:45 51.7 °F 43.7 °F 29.56 in SW 5.0 mph 8.0 mph 74% 0.00 in
07:50 51.7 °F 43.7 °F 29.56 in SW 4.0 mph 7.0 mph 74% 0.00 in
07:55 51.8 °F 43.8 °F 29.56 in SW 3.0 mph 7.0 mph 74% 0.00 in
08:00 51.8 °F 43.8 °F 29.56 in SW 3.0 mph 5.0 mph 74% 0.00 in
08:05 51.9 °F 43.5 °F 29.56 in SW 4.0 mph 9.0 mph 73% 0.00 in
08:10 51.9 °F 43.9 °F 29.56 in SW 4.0 mph 9.0 mph 74% 0.00 in
08:15 51.9 °F 44.2 °F 29.56 in SW 2.0 mph 5.0 mph 75% 0.00 in
08:20 52.0 °F 44.0 °F 29.56 in SSW 1.0 mph 6.0 mph 74% 0.00 in
08:25 52.0 °F 44.0 °F 29.56 in SW 5.0 mph 9.0 mph 74% 0.00 in
08:30 52.1 °F 43.7 °F 29.56 in South 6.0 mph 9.0 mph 73% 0.00 in
08:35 52.1 °F 43.3 °F 29.56 in SW 5.0 mph 12.0 mph 72% 0.00 in
08:40 52.1 °F 43.3 °F 29.56 in SSW 2.0 mph 9.0 mph 72% 0.00 in
08:45 52.0 °F 43.3 °F 29.56 in SSW 4.0 mph 11.0 mph 72% 0.00 in
08:55 52.1 °F 43.3 °F 29.56 in SSW 4.0 mph 9.0 mph 72% 0.00 in
09:00 52.1 °F 43.3 °F 29.56 in SSW 4.0 mph 12.0 mph 72% 0.00 in
09:05 52.1 °F 43.3 °F 29.56 in SSW 5.0 mph 12.0 mph 72% 0.00 in
09:10 52.0 °F 43.6 °F 29.56 in SSW 3.0 mph 12.0 mph 73% 0.00 in
09:15 51.8 °F 43.8 °F 29.56 in SSW 7.0 mph 15.0 mph 74% 0.00 in
09:20 51.4 °F 43.7 °F 29.56 in SSW 3.0 mph 14.0 mph 75% 0.00 in
09:25 51.4 °F 43.7 °F 29.56 in SW 5.0 mph 15.0 mph 75% 0.00 in
09:30 51.4 °F 44.1 °F 29.56 in South 5.0 mph 15.0 mph 76% 0.00 in
09:35 51.0 °F 44.4 °F 29.56 in South 7.0 mph 11.0 mph 78% 0.00 in
09:40 50.9 °F 44.9 °F 29.55 in SSW 4.0 mph 12.0 mph 80% 0.00 in
09:45 50.9 °F 44.9 °F 29.55 in SSW 5.0 mph 12.0 mph 80% 0.00 in
09:50 51.2 °F 45.6 °F 29.55 in SSW 5.0 mph 10.0 mph 81% 0.00 in
09:55 51.3 °F 45.7 °F 29.55 in SSW 5.0 mph 9.0 mph 81% 0.00 in
10:00 51.4 °F 46.1 °F 29.55 in SSE 5.0 mph 14.0 mph 82% 0.00 in
10:05 51.4 °F 45.8 °F 29.55 in SW 6.0 mph 12.0 mph 81% 0.00 in
10:10 51.7 °F 45.7 °F 29.54 in SW 7.0 mph 14.0 mph 80% 0.00 in
10:15 52.3 °F 46.3 °F 29.54 in SSW 5.0 mph 14.0 mph 80% 0.00 in
10:20 52.8 °F 46.5 °F 29.54 in SSW 5.0 mph 11.0 mph 79% 0.00 in
10:25 52.8 °F 45.4 °F 29.54 in SSW 6.0 mph 14.0 mph 76% 0.00 in
10:30 53.0 °F 45.6 °F 29.54 in SW 6.0 mph 14.0 mph 76% 0.00 in
10:35 53.0 °F 44.9 °F 29.54 in SW 6.0 mph 16.0 mph 74% 0.00 in
10:40 53.2 °F 45.5 °F 29.53 in SSE 9.0 mph 16.0 mph 75% 0.00 in
10:45 53.2 °F 45.1 °F 29.53 in SSW 7.0 mph 16.0 mph 74% 0.00 in
10:50 53.3 °F 44.5 °F 29.53 in SSW 7.0 mph 17.0 mph 72% 0.00 in
10:55 53.3 °F 44.5 °F 29.53 in South 8.0 mph 16.0 mph 72% 0.00 in
11:00 51.6 °F 42.9 °F 29.56 in West 19.0 mph 25.0 mph 72% 0.01 in
11:05 47.9 °F 42.0 °F 29.56 in WNW 5.0 mph 28.0 mph 80% 0.01 in
11:10 46.8 °F 42.2 °F 29.56 in WSW 14.0 mph 21.0 mph 84% 0.01 in
11:15 46.4 °F 42.1 °F 29.56 in WSW 9.0 mph 21.0 mph 85% 0.02 in
11:20 46.3 °F 42.3 °F 29.56 in WSW 10.0 mph 17.0 mph 86% 0.02 in
11:25 46.2 °F 42.2 °F 29.56 in WSW 10.0 mph 18.0 mph 86% 0.03 in
11:30 46.1 °F 42.4 °F 29.56 in WSW 10.0 mph 19.0 mph 87% 0.03 in
11:35 46.3 °F 42.6 °F 29.57 in WSW 9.0 mph 19.0 mph 87% 0.04 in
11:40 46.2 °F 42.5 °F 29.56 in SSW 7.0 mph 29.0 mph 87% 0.04 in
11:45 46.3 °F 42.6 °F 29.56 in WSW 8.0 mph 29.0 mph 87% 0.04 in
11:50 46.7 °F 43.0 °F 29.56 in WSW 5.0 mph 14.0 mph 87% 0.04 in
11:55 47.1 °F 43.1 °F 29.56 in WSW 10.0 mph 11.0 mph 86% 0.04 in
12:00 47.2 °F 43.2 °F 29.56 in WSW 6.0 mph 20.0 mph 86% 0.03 in
12:05 47.3 °F 43.3 °F 29.56 in WSW 9.0 mph 16.0 mph 86% 0.03 in
12:10 47.4 °F 43.1 °F 29.56 in WSW 7.0 mph 15.0 mph 85% 0.03 in
12:15 47.5 °F 42.9 °F 29.56 in WSW 9.0 mph 20.0 mph 84% 0.02 in
12:20 47.5 °F 42.9 °F 29.57 in WSW 10.0 mph 21.0 mph 84% 0.02 in
12:25 47.4 °F 42.5 °F 29.56 in WSW 10.0 mph 21.0 mph 83% 0.01 in
12:30 47.3 °F 42.1 °F 29.57 in WSW 12.0 mph 22.0 mph 82% 0.01 in
12:35 47.1 °F 42.2 °F 29.57 in SW 8.0 mph 20.0 mph 83% 0.00 in
12:40 46.8 °F 41.9 °F 29.57 in WSW 18.0 mph 22.0 mph 83% 0.00 in
12:45 46.9 °F 42.0 °F 29.57 in SW 7.0 mph 23.0 mph 83% 0.00 in
12:50 47.2 °F 42.6 °F 29.57 in WSW 9.0 mph 23.0 mph 84% 0.00 in
12:55 47.5 °F 42.9 °F 29.57 in WSW 8.0 mph 21.0 mph 84% 0.00 in
13:00 47.0 °F 42.1 °F 29.57 in West 12.0 mph 21.0 mph 83% 0.00 in
13:05 46.9 °F 42.6 °F 29.57 in WSW 7.0 mph 17.0 mph 85% 0.00 in
13:10 46.9 °F 42.6 °F 29.57 in WSW 10.0 mph 17.0 mph 85% 0.00 in
13:15 46.7 °F 42.4 °F 29.58 in SW 9.0 mph 20.0 mph 85% 0.00 in
13:20 46.3 °F 42.0 °F 29.58 in SW 10.0 mph 20.0 mph 85% 0.01 in
13:25 46.2 °F 41.9 °F 29.58 in WSW 10.0 mph 23.0 mph 85% 0.01 in
13:30 46.2 °F 41.9 °F 29.58 in SW 12.0 mph 24.0 mph 85% 0.01 in
13:35 46.2 °F 42.2 °F 29.58 in SSW 15.0 mph 18.0 mph 86% 0.01 in
13:40 46.2 °F 41.9 °F 29.58 in West 14.0 mph 23.0 mph 85% 0.01 in
13:45 46.3 °F 42.0 °F 29.58 in WSW 12.0 mph 23.0 mph 85% 0.01 in
13:50 46.2 °F 41.6 °F 29.58 in SW 12.0 mph 23.0 mph 84% 0.01 in
13:55 46.2 °F 41.3 °F 29.59 in West 10.0 mph 24.0 mph 83% 0.01 in
14:00 46.5 °F 41.9 °F 29.59 in SW 12.0 mph 27.0 mph 84% 0.01 in
14:05 46.5 °F 41.6 °F 29.58 in West 9.0 mph 24.0 mph 83% 0.01 in
14:10 47.0 °F 42.1 °F 29.59 in SW 14.0 mph 24.0 mph 83% 0.01 in
14:15 47.1 °F 42.2 °F 29.59 in WSW 7.0 mph 23.0 mph 83% 0.01 in
14:20 47.3 °F 42.1 °F 29.59 in SW 13.0 mph 24.0 mph 82% 0.00 in
14:25 47.0 °F 41.5 °F 29.60 in WSW 13.0 mph 28.0 mph 81% 0.00 in
14:30 46.8 °F 41.3 °F 29.60 in SW 10.0 mph 25.0 mph 81% 0.00 in
14:35 47.0 °F 41.5 °F 29.60 in South 6.0 mph 20.0 mph 81% 0.00 in
14:40 47.3 °F 41.8 °F 29.60 in West 7.0 mph 19.0 mph 81% 0.00 in
14:45 47.3 °F 41.4 °F 29.60 in WSW 14.0 mph 22.0 mph 80% 0.00 in
14:50 47.5 °F 41.6 °F 29.60 in SW 10.0 mph 23.0 mph 80% 0.00 in
14:55 47.7 °F 41.5 °F 29.60 in SW 11.0 mph 26.0 mph 79% 0.00 in
15:00 47.9 °F 41.4 °F 29.60 in WSW 12.0 mph 21.0 mph 78% 0.00 in
15:05 48.6 °F 41.7 °F 29.60 in SSW 18.0 mph 22.0 mph 77% 0.00 in
15:10 48.4 °F 41.2 °F 29.60 in SW 15.0 mph 28.0 mph 76% 0.00 in
15:15 48.6 °F 41.4 °F 29.61 in NW 9.0 mph 22.0 mph 76% 0.00 in
15:20 48.1 °F 41.2 °F 29.61 in WSW 11.0 mph 22.0 mph 77% 0.00 in
15:25 47.7 °F 40.8 °F 29.61 in WSW 11.0 mph 22.0 mph 77% 0.00 in
15:30 47.7 °F 40.8 °F 29.61 in WSW 12.0 mph 25.0 mph 77% 0.00 in
15:35 48.6 °F 42.0 °F 29.61 in NW 7.0 mph 20.0 mph 78% 0.00 in
15:40 48.7 °F 41.5 °F 29.61 in West 9.0 mph 28.0 mph 76% 0.00 in
15:45 48.6 °F 41.4 °F 29.62 in West 24.0 mph 28.0 mph 76% 0.00 in
15:50 48.5 °F 41.3 °F 29.61 in WSW 13.0 mph 28.0 mph 76% 0.00 in
15:55 48.2 °F 41.3 °F 29.61 in WSW 12.0 mph 25.0 mph 77% 0.00 in
16:00 48.5 °F 41.3 °F 29.62 in SW 13.0 mph 25.0 mph 76% 0.00 in
16:05 48.4 °F 41.2 °F 29.62 in SW 13.0 mph 25.0 mph 76% 0.00 in
16:10 48.6 °F 41.7 °F 29.62 in SW 13.0 mph 25.0 mph 77% 0.00 in
16:15 48.8 °F 41.2 °F 29.63 in SW 8.0 mph 25.0 mph 75% 0.00 in
16:20 48.7 °F 41.1 °F 29.63 in West 23.0 mph 26.0 mph 75% 0.00 in
16:25 47.9 °F 40.4 °F 29.63 in WSW 9.0 mph 30.0 mph 75% 0.00 in
16:30 47.7 °F 40.5 °F 29.63 in West 21.0 mph 22.0 mph 76% 0.00 in
16:35 47.4 °F 40.6 °F 29.63 in WSW 9.0 mph 21.0 mph 77% 0.00 in
16:40 47.2 °F 40.4 °F 29.63 in SW 13.0 mph 30.0 mph 77% 0.00 in
16:45 47.1 °F 40.3 °F 29.64 in SW 19.0 mph 27.0 mph 77% 0.00 in
16:50 47.2 °F 40.7 °F 29.64 in WSW 12.0 mph 27.0 mph 78% 0.00 in
16:55 47.0 °F 40.5 °F 29.64 in WSW 13.0 mph 27.0 mph 78% 0.00 in
17:00 47.0 °F 40.5 °F 29.64 in WSW 13.0 mph 28.0 mph 78% 0.00 in
17:05 47.1 °F 40.6 °F 29.65 in WSW 13.0 mph 28.0 mph 78% 0.00 in
17:10 47.0 °F 40.5 °F 29.64 in WSW 12.0 mph 25.0 mph 78% 0.00 in
17:15 47.0 °F 40.5 °F 29.65 in SSW 20.0 mph 24.0 mph 78% 0.00 in
17:20 46.9 °F 40.4 °F 29.65 in SW 13.0 mph 28.0 mph 78% 0.00 in
17:25 46.8 °F 40.3 °F 29.65 in SW 9.0 mph 30.0 mph 78% 0.00 in
17:30 46.7 °F 40.2 °F 29.65 in West 11.0 mph 23.0 mph 78% 0.00 in
17:35 46.7 °F 40.2 °F 29.66 in SW 11.0 mph 25.0 mph 78% 0.00 in
17:40 46.7 °F 40.2 °F 29.66 in West 14.0 mph 23.0 mph 78% 0.00 in
17:45 46.7 °F 40.2 °F 29.66 in WSW 13.0 mph 23.0 mph 78% 0.00 in
17:50 46.7 °F 40.2 °F 29.66 in WSW 13.0 mph 26.0 mph 78% 0.00 in
17:55 46.7 °F 40.2 °F 29.67 in WSW 14.0 mph 26.0 mph 78% 0.00 in
18:00 46.8 °F 40.6 °F 29.67 in WSW 13.0 mph 25.0 mph 79% 0.00 in
18:05 46.8 °F 40.6 °F 29.67 in WSW 11.0 mph 24.0 mph 79% 0.00 in
18:10 46.9 °F 40.4 °F 29.67 in SW 18.0 mph 22.0 mph 78% 0.00 in
18:15 46.9 °F 40.7 °F 29.67 in WSW 11.0 mph 27.0 mph 79% 0.00 in
18:20 46.9 °F 40.4 °F 29.67 in WSW 12.0 mph 27.0 mph 78% 0.00 in
18:25 47.0 °F 40.5 °F 29.68 in WSW 13.0 mph 27.0 mph 78% 0.00 in
18:30 47.0 °F 40.8 °F 29.68 in WSW 13.0 mph 27.0 mph 79% 0.00 in
18:35 47.0 °F 40.5 °F 29.68 in South 7.0 mph 28.0 mph 78% 0.00 in
18:40 47.0 °F 40.8 °F 29.68 in SE 11.0 mph 25.0 mph 79% 0.00 in
18:45 47.0 °F 40.5 °F 29.68 in SE 11.0 mph 28.0 mph 78% 0.00 in
18:50 47.0 °F 40.5 °F 29.68 in WSW 15.0 mph 28.0 mph 78% 0.00 in
18:55 47.0 °F 40.5 °F 29.68 in WSW 13.0 mph 24.0 mph 78% 0.00 in
19:00 46.9 °F 40.4 °F 29.68 in WSW 12.0 mph 23.0 mph 78% 0.00 in
19:05 46.9 °F 40.7 °F 29.69 in WNW 8.0 mph 27.0 mph 79% 0.00 in
19:10 46.8 °F 40.3 °F 29.69 in SW 9.0 mph 23.0 mph 78% 0.00 in
19:15 46.8 °F 40.3 °F 29.69 in SW 19.0 mph 25.0 mph 78% 0.00 in
19:20 46.8 °F 40.3 °F 29.69 in WSW 12.0 mph 25.0 mph 78% 0.00 in
19:25 46.8 °F 40.3 °F 29.69 in WSW 12.0 mph 22.0 mph 78% 0.00 in
19:30 46.7 °F 40.2 °F 29.70 in WSW 11.0 mph 22.0 mph 78% 0.00 in
19:35 46.7 °F 40.2 °F 29.70 in WSW 11.0 mph 23.0 mph 78% 0.00 in
19:40 46.6 °F 40.1 °F 29.69 in WSW 12.0 mph 23.0 mph 78% 0.00 in
19:45 46.7 °F 39.9 °F 29.70 in SSW 9.0 mph 28.0 mph 77% 0.00 in
19:50 46.6 °F 39.8 °F 29.70 in SW 14.0 mph 23.0 mph 77% 0.00 in
19:55 46.7 °F 40.2 °F 29.70 in WSW 11.0 mph 24.0 mph 78% 0.00 in
20:00 46.6 °F 40.1 °F 29.70 in WSW 8.0 mph 25.0 mph 78% 0.00 in
20:05 46.5 °F 40.0 °F 29.71 in WSW 11.0 mph 23.0 mph 78% 0.00 in
20:10 46.5 °F 40.0 °F 29.71 in SW 12.0 mph 22.0 mph 78% 0.00 in
20:15 46.5 °F 40.3 °F 29.71 in SSE 8.0 mph 17.0 mph 79% 0.00 in
20:20 46.5 °F 40.3 °F 29.71 in WSW 11.0 mph 25.0 mph 79% 0.00 in
20:25 46.4 °F 40.2 °F 29.71 in WSW 12.0 mph 25.0 mph 79% 0.00 in
20:30 46.3 °F 40.5 °F 29.72 in WSW 10.0 mph 20.0 mph 80% 0.00 in
20:35 46.2 °F 40.4 °F 29.72 in West 12.0 mph 16.0 mph 80% 0.00 in
20:40 46.2 °F 40.4 °F 29.72 in West 7.0 mph 19.0 mph 80% 0.00 in
20:45 46.1 °F 40.3 °F 29.72 in WNW 6.0 mph 20.0 mph 80% 0.00 in
20:50 46.0 °F 40.5 °F 29.73 in WSW 15.0 mph 22.0 mph 81% 0.00 in
20:55 46.0 °F 40.5 °F 29.73 in WSW 10.0 mph 22.0 mph 81% 0.00 in
21:00 45.9 °F 40.4 °F 29.73 in WSW 10.0 mph 21.0 mph 81% 0.00 in
21:05 45.9 °F 40.4 °F 29.73 in WSW 10.0 mph 22.0 mph 81% 0.00 in
21:10 46.0 °F 40.5 °F 29.73 in WSW 11.0 mph 22.0 mph 81% 0.00 in
21:15 46.0 °F 40.5 °F 29.74 in SSW 11.0 mph 22.0 mph 81% 0.00 in
21:20 46.0 °F 40.5 °F 29.74 in WSW 16.0 mph 18.0 mph 81% 0.00 in
21:25 46.0 °F 40.5 °F 29.74 in WSW 9.0 mph 23.0 mph 81% 0.00 in
21:30 46.0 °F 40.5 °F 29.74 in WSW 9.0 mph 23.0 mph 81% 0.00 in
21:35 45.9 °F 40.4 °F 29.74 in WSW 13.0 mph 18.0 mph 81% 0.00 in
21:40 46.0 °F 40.5 °F 29.74 in West 9.0 mph 26.0 mph 81% 0.00 in
21:45 46.0 °F 40.2 °F 29.74 in West 9.0 mph 23.0 mph 80% 0.00 in
21:50 46.1 °F 40.3 °F 29.75 in WSW 19.0 mph 19.0 mph 80% 0.00 in
21:55 46.1 °F 40.3 °F 29.75 in WSW 9.0 mph 19.0 mph 80% 0.00 in
22:00 46.1 °F 40.3 °F 29.75 in WSW 10.0 mph 20.0 mph 80% 0.00 in
22:05 46.1 °F 40.3 °F 29.75 in WSW 10.0 mph 20.0 mph 80% 0.00 in
22:10 46.2 °F 40.4 °F 29.75 in WSW 10.0 mph 18.0 mph 80% 0.00 in
22:15 46.2 °F 40.4 °F 29.75 in WSW 10.0 mph 22.0 mph 80% 0.00 in
22:20 46.2 °F 40.4 °F 29.76 in SW 13.0 mph 19.0 mph 80% 0.00 in
22:25 46.3 °F 40.5 °F 29.75 in South 10.0 mph 25.0 mph 80% 0.00 in
22:30 46.4 °F 40.6 °F 29.76 in WSW 12.0 mph 17.0 mph 80% 0.00 in
22:35 46.3 °F 40.5 °F 29.76 in WSW 10.0 mph 23.0 mph 80% 0.00 in
22:40 46.4 °F 40.6 °F 29.76 in SSE 11.0 mph 24.0 mph 80% 0.00 in
22:45 46.4 °F 40.6 °F 29.76 in WSW 7.0 mph 25.0 mph 80% 0.00 in
22:50 46.3 °F 40.5 °F 29.76 in WSW 10.0 mph 25.0 mph 80% 0.00 in
22:55 46.1 °F 40.3 °F 29.76 in WSW 9.0 mph 18.0 mph 80% 0.00 in
23:00 46.1 °F 40.6 °F 29.76 in WSW 10.0 mph 18.0 mph 81% 0.00 in
23:05 46.0 °F 40.5 °F 29.76 in WSW 12.0 mph 21.0 mph 81% 0.00 in
23:10 46.0 °F 40.5 °F 29.76 in WSW 15.0 mph 17.0 mph 81% 0.00 in
23:15 45.9 °F 40.4 °F 29.76 in SSW 6.0 mph 21.0 mph 81% 0.00 in
23:20 45.8 °F 40.3 °F 29.76 in WSW 10.0 mph 21.0 mph 81% 0.00 in
23:25 45.9 °F 40.7 °F 29.77 in WSW 9.0 mph 17.0 mph 82% 0.00 in
23:30 46.0 °F 40.8 °F 29.77 in WSW 9.0 mph 16.0 mph 82% 0.00 in
23:35 46.1 °F 40.9 °F 29.77 in WSW 8.0 mph 16.0 mph 82% 0.00 in
23:40 46.1 °F 40.9 °F 29.76 in WSW 9.0 mph 19.0 mph 82% 0.00 in
23:45 46.1 °F 40.6 °F 29.76 in SW 11.0 mph 22.0 mph 81% 0.00 in
23:50 46.1 °F 40.6 °F 29.76 in West 7.0 mph 19.0 mph 81% 0.00 in
23:55 46.0 °F 40.5 °F 29.76 in West 5.0 mph 18.0 mph 81% 0.00 in
Buffalo, New York, USA
Compliments of Weather Underground - 2.5 mb